Regional Weather Roundup
Issued by NWS Kansas City/Pleasant Hill, MO

Home | Current Version | Previous Version | Text Only | Print | Product List | Glossary On
Versions: 1 2 3 4 5 6 7 8 9 10 11 12 13 14 15 16 17 18 19 20 21 22 23 24 25 26 27
000
ASUS43 KEAX 231010
RWREAX

WEATHER ROUNDUP FOR EASTERN KANSAS AND NORTHWEST MISSOURI
NATIONAL WEATHER SERVICE KANSAS CITY/PLEASANT HILL MO
500 AM CDT SAT SEP 23 2017

KSZ040-057-103>105-MOZ028-029-037-043-231100-
...KANSAS CITY METROPOLITAN AREA...

CITY           SKY/WX    TMP DP  RH WIND       PRES   REMARKS
K.C. INTL      PTCLDY    71  67  87 S9        29.97S
K.C. DOWNTOWN  CLEAR     74  70  87 SW6       29.97R
LEES SUMMIT    CLEAR     73  68  84 S8        29.99S
OLATHE - IXD   CLEAR     71  66  84 SE8       29.98S
OLATHE - OJC   PTCLDY    68  68 100 SE3       29.98S
LAWRENCE       CLEAR     70  68  93 E6        29.96S

$$

MOZ001>008-011>017-020>025-030>033-038>040-044>046-053-054-231100-
...NORTHERN AND CENTRAL MISSOURI...

CITY           SKY/WX    TMP DP  RH WIND       PRES   REMARKS
ST. JOSEPH     PTCLDY    71  69  93 S5        29.96R
MOSBY          SUNNY     66  64  94 CALM      29.98R FOG
WARRENSBURG    CLEAR     68  64  88 SE3       29.99R
WHITEMAN AFB   CLEAR     68  68 100 S5        29.99R
CLINTON        CLEAR     66  66 100 MISG      30.00R
SEDALIA        CLEAR     71  68  90 S8        30.01R
WARSAW         NOT AVBL
CHILLICOTHE      N/A     68  68 100 CALM      29.99R
KIRKSVILLE     CLEAR     69  63  81 S5        30.01R

$$

MOZ041-047>049-056>058-063>065-088>090-097-231100-
...EASTERN AND SOUTHERN MISSOURI...

CITY           SKY/WX    TMP DP  RH WIND       PRES   REMARKS
ST. LOUIS INTL CLEAR     71  65  81 E3        30.02S
SPIRIT OF STL  CLEAR     66  66 100 CALM      30.01R FOG
COLUMBIA       CLEAR     70  66  87 SE7       30.01R
JEFFERSON CITY CLEAR     67  64  90 CALM      30.00R
ROLLA          CLEAR     67  64  90 S5        30.03S
OSAGE BEACH    CLEAR     68  65  90 SE5       30.02R
SPRINGFIELD    CLEAR     70  66  87 SE7       30.01S
BRANSON        PTCLDY    70  64  83 CALM      30.03R
JOPLIN         CLEAR     71  68  90 S7        29.99R
WEST PLAINS    CLEAR     65  62  90 CALM      30.04S

$$

IAZ060-094-KSZ022-034>040-054-083-096-NEZ052-066-093-231100-
...KANSAS...SOUTHEAST NEBRASKA AND IOWA...

CITY           SKY/WX    TMP DP  RH WIND       PRES   REMARKS
TOPEKA         CLEAR     69  68  96 NE3       29.95R
MANHATTAN      CLEAR     73  67  81 S6        29.93R
EMPORIA        CLEAR     69  65  86 S8        29.95S
CHANUTE        CLEAR     69  66  90 SE6       29.98R
WICHITA        PTCLDY    71  66  84 S8        29.93R
OMAHA          PTCLDY    72  66  81 SE9       29.91S
LINCOLN        CLEAR     73  67  81 S10       29.90R
FALLS CITY     CLEAR     71  67  87 S5        29.93R
LAMONI         CLEAR     71  67  87 S6        29.98R
DES MOINES     CLEAR     72  67  84 S7        29.96R

$$





USA.gov is the U.S. government's official web portal to all federal, state and local government web resources and services.